Location: Hains Lake
(37.8540°N, 99.8578°W)
Time: 05:18:46
(UTC+00:00)

Tiros 1 despin weight - Pass Details

Date: 26 April 2021
Orbit: 593 x 642 km, 48.2° (Epoch: 07 May)

Event Time Altitude Azimuth Distance (km) Brightness Sun altitude
Rises 13:30:24 0° 304° (WNW) 2,904 ? 18.8°
Reaches altitude 10° 13:33:00 10° 315° (NW) 1,987 ? 19.3°
Maximum altitude 13:36:58 29° 16° (NNE) 1,142 ? 20.1°
Drops below altitude 10° 13:40:53 10° 77° (ENE) 1,956 ? 20.8°
Sets 13:43:25 0° 89° (E) 2,849 ? 21.3°
